Weather History for 78774 - June, 2013

Change the Weather History Date:

Thursday, June 27, 2013

  Actual Average Record
Temperature  
Mean Temperature 82 °F -  
Max Temperature 90 °F 87 °F - ()
Min Temperature 73 °F 75 °F - ()
Cooling Degree Days 16    
Growing Degree Days 32 (Base 50)    
Moisture  
Dew Point 69 °F    
Average Humidity 62    
Maximum Humidity 94    
Minimum Humidity 33    
Precipitation  
Precipitation 0.00 in - - ()
Sea Level Pressure  
Sea Level Pressure 29.84 in    
Wind  
Wind Speed 7 mph ()    
Max Wind Speed 14 mph    
Max Gust Speed -    
Visibility 8.1 miles    
Events Rain    
T = Trace of Precipitation, MM = Missing Value Source: Averaged Metar Reports

Daily Weather History Graph

Daily Weather History Graph

Search for Another Location

Airport or City:

Trip Planner

Search our weather history database for the weather conditions in past years. The results will help you decide how hot, cold, wet, or windy it might be!

Date:

Astronomy

Jun. 27, 2013 Rise Set
Actual Time 5:23 AM CST 6:07 PM CST
Civil Twilight 4:59 AM CST 6:30 PM CST
Nautical Twilight 4:32 AM CST 6:57 PM CST
Astronomical Twilight 4:05 AM CST 7:25 PM CST
Moon 10:03 PM CST (6/27) 9:30 AM CST (6/27)
Length of Visible Light 13h 30m
Length of Day
12h 44m
Waning Gibbous, 76% of the Moon is Illuminated
Jun 27
Waning Gibbous
Jun 29
Last Quarter
Jul 8
New
Jul 15
First Quarter
Jul 22
Full

Hourly Weather History & Observations

Time (CST) Temp. Heat Index Dew Point Humidity Pressure Visibility Wind Dir Wind Speed Gust Speed Precip Events Conditions
6:00 AM 74 °F - 71 °F 89% 29.89 in 9 mi SSW 4.6 mph - - Rain Light Drizzle
6:00 AM 73.4 °F - 71.6 °F 94% 29.88 in 6.2 mi SSW 4.6 mph - N/A   Drizzle
7:00 AM 75.2 °F - 71.6 °F 89% 29.88 in 6.2 mi South 3.5 mph - N/A   Mostly Cloudy
8:00 AM 78.8 °F - 71.6 °F 78% 29.88 in 6.2 mi NNE 3.5 mph - N/A   Mostly Cloudy
9:00 AM 81 °F - 73 °F 70% 29.88 in 12 mi NNW 6.9 mph - -   Overcast
9:00 AM 80.6 °F 85.4 °F 73.4 °F 79% 29.87 in - NNW 6.9 mph - N/A   Clear
10:00 AM 82.4 °F - - N/A% 29.87 in - SW 9.2 mph - N/A   Clear
11:00 AM 86.0 °F 89.4 °F 68.0 °F 55% 29.85 in - East 13.8 mph - N/A   Clear
12:00 PM 87 °F - 69 °F 47% 29.86 in 12 mi NE 6.9 mph - -   Overcast
12:00 PM 87.8 °F 92.6 °F 69.8 °F 55% 29.84 in - NE 6.9 mph - N/A   Clear
1:00 PM 89.6 °F 93.4 °F 68.0 °F 49% 29.81 in - East 13.8 mph - N/A   Clear
2:00 PM 89.6 °F 93.4 °F 68.0 °F 49% 29.81 in - East 10.4 mph - N/A   Clear
3:00 PM 90 °F - 65 °F 33% 29.81 in 12 mi East 13.8 mph - -   Overcast
3:00 PM 89.6 °F 91.1 °F 64.4 °F 43% 29.79 in 6.2 mi East 13.8 mph - N/A   Mostly Cloudy
4:00 PM 87.8 °F 91.4 °F 68.0 °F 52% 29.79 in 6.2 mi SE 9.2 mph - N/A   Mostly Cloudy
5:00 PM 84.2 °F 86.6 °F 66.2 °F 55% 29.79 in 6.2 mi ESE 9.2 mph - N/A   Mostly Cloudy
6:00 PM 82 °F - 69 °F 57% 29.82 in 12 mi SSE 5.8 mph - -   Overcast
6:00 PM 82.4 °F 86.3 °F 69.8 °F 66% 29.81 in 6.2 mi SSE 5.8 mph - N/A   Mostly Cloudy
7:00 PM 82.4 °F 85.4 °F 68.0 °F 62% 29.84 in 6.2 mi East 12.7 mph - N/A   Mostly Cloudy
8:00 PM 80.6 °F 83.2 °F 68.0 °F 65% 29.86 in 6.2 mi ESE 11.5 mph - N/A   Mostly Cloudy